Wind_Speed
17 17 16 17 16 15 14 14 14 15 16 17 18 18 19 19 19 19 21 22 24 26 27 29 29 31 33 34 35 37 40 37 32 29 28 32 34 38 37 35 39 56 64 64 60
19 18 19 18 17 17 17 17 17 16 16 17 18 19 20 19 19 20 21 22 23 25 26 28 29 31 32 34 35 37 37 33 29 28 30 33 33 33 35 32 35 53 62 63 61
18 19 19 19 19 19 19 19 19 20 19 19 20 20 19 19 20 20 21 22 23 25 26 28 29 30 31 32 35 37 37 30 29 28 29 30 28 31 32 31 34 50 61 62 62
19 20 19 20 20 20 20 21 20 21 20 20 20 21 21 21 22 22 23 24 25 25 27 28 28 29 30 32 34 34 35 31 28 26 27 24 21 23 27 28 34 43 55 60 62
21 21 21 22 22 23 23 23 23 23 23 23 24 23 23 23 23 23 25 25 26 26 27 28 29 29 30 32 33 34 33 30 27 24 22 21 17 19 22 28 34 40 52 58 63
22 23 24 23 25 25 25 25 25 26 26 25 26 25 24 24 25 25 26 27 27 27 28 28 29 29 29 30 33 34 35 29 28 25 23 21 19 20 21 26 31 37 50 56 63
24 25 25 26 26 27 27 27 28 27 28 28 27 26 27 26 26 28 27 27 27 28 29 29 29 30 29 30 32 34 32 32 28 27 22 18 18 18 23 27 30 34 47 53 61
25 25 26 27 28 29 29 30 30 30 30 30 30 29 27 27 27 27 28 28 28 27 28 29 29 30 30 29 31 33 33 30 30 26 23 17 16 23 23 24 31 33 39 52 59
28 27 28 28 30 30 31 31 31 31 31 31 32 31 29 29 27 27 28 28 28 28 28 28 29 29 30 28 30 31 32 33 28 27 25 24 14 21 25 21 29 32 34 49 54
31 32 35 35 37 34 33 33 33 32 31 31 31 32 30 30 30 29 28 28 29 29 28 28 28 29 28 29 29 30 30 31 30 26 24 23 15 21 26 19 23 28 31 44 52
38 38 38 38 38 37 36 35 35 34 30 31 32 33 33 31 32 30 27 28 30 30 30 28 28 28 28 28 28 28 30 29 31 28 20 21 23 21 23 16 10 22 25 38 49
41 42 40 38 38 37 38 38 37 38 31 29 30 31 32 32 30 28 29 32 31 31 31 29 28 29 28 28 27 26 27 27 26 27 25 23 20 21 19 16 9 16 20 28 38
38 36 35 37 37 38 39 37 37 38 39 31 30 33 30 29 27 31 32 34 32 32 32 30 30 28 28 29 26 27 25 26 26 23 24 18 19 22 17 15 10 10 20 25 28
36 36 36 37 37 36 36 36 37 40 41 34 30 27 29 29 30 32 36 34 34 34 33 29 29 28 27 27 27 26 25 24 25 24 24 23 18 17 16 14 11 10 12 20 30
37 37 38 38 38 37 37 39 39 39 43 36 34 33 34 35 35 34 34 38 36 35 33 31 29 28 26 26 26 27 26 22 23 21 21 21 18 18 16 14 12 12 14 18 22
41 40 40 39 39 41 40 39 39 37 37 37 34 33 33 33 35 35 37 35 35 33 30 26 23 24 25 26 26 26 25 24 21 21 18 19 19 17 16 14 12 12 13 16 22
41 41 42 42 42 41 39 36 39 38 39 40 39 40 40 37 35 33 33 32 29 27 26 23 19 23 24 26 25 24 24 23 22 20 22 22 15 18 16 16 15 14 15 18 18
44 44 43 44 43 42 41 40 42 45 46 47 47 46 46 45 40 37 33 29 29 29 34 33 28 25 24 23 22 21 22 24 26 23 20 20 12 16 14 16 15 19 18 16 17
47 48 48 47 46 46 47 48 50 52 50 48 46 46 44 42 39 37 34 34 34 33 33 32 23 20 19 20 22 22 23 24 25 24 20 19 19 16 22 18 17 19 20 21 18
53 55 55 55 53 52 52 51 51 48 44 44 44 41 38 35 37 34 30 31 30 27 25 24 20 15 15 18 22 24 23 24 26 27 27 20 17 14 18 16 22 21 21 22 23
51 53 51 51 50 48 46 46 44 42 41 40 39 38 34 33 31 30 28 27 26 23 23 24 24 19 17 17 21 22 23 24 27 28 29 26 17 20 23 22 21 24 25 21 22
55 55 53 52 49 45 44 42 41 40 40 40 39 37 34 33 34 32 29 28 29 28 27 28 31 29 24 22 22 24 26 27 29 27 28 30 18 19 21 25 26 23 25 24 21
56 53 50 47 47 44 43 42 41 40 39 38 37 37 37 36 36 35 35 34 33 33 34 35 37 37 34 29 27 28 28 31 32 31 29 33 24 22 18 26 26 26 25 24 20
60 55 50 46 43 41 40 40 41 41 41 40 39 39 39 39 40 40 39 39 38 38 40 42 43 42 42 40 35 33 32 34 36 38 35 33 34 21 18 26 27 28 28 26 24
59 54 47 44 42 40 38 38 38 38 39 39 40 39 40 39 39 40 43 43 42 44 44 47 50 49 48 46 45 42 40 39 40 38 44 38 39 26 29 30 31 32 32 31 26
56 51 46 43 40 39 38 37 37 37 37 38 39 39 41 42 41 41 40 42 45 43 44 47 53 54 51 52 53 53 52 49 45 42 46 44 43 35 35 33 32 33 32 32 27
50 45 42 39 37 37 35 35 35 35 35 37 38 39 39 40 41 43 45 46 46 49 51 51 51 54 57 55 58 62 55 53 52 52 51 49 49 43 38 36 34 33 32 32 29
Wind_Direction
8 10 12 10 2 351 338 331 328 327 327 324 321 321 321 322 325 326 326 329 328 326 327 329 331 332 332 335 336 337 338 333 321 307 295 291 282 260 251 248 237 224 217 214 210
0 359 357 356 356 358 358 355 347 342 341 339 336 335 333 329 329 332 332 330 332 332 332 335 337 337 335 337 338 339 342 341 322 307 305 293 282 260 249 252 239 221 219 214 210
348 350 352 350 350 347 346 346 345 346 347 349 348 346 341 338 337 337 337 337 337 337 337 337 338 337 336 338 341 342 345 345 330 318 312 300 279 266 249 251 239 224 218 212 209
337 337 338 340 341 341 339 339 338 337 337 337 338 338 339 337 338 339 340 339 339 339 339 337 336 337 338 340 343 344 345 344 340 320 319 307 276 276 253 247 241 228 221 211 208
329 329 329 328 330 333 334 332 331 332 331 331 332 333 332 331 332 332 335 335 335 337 337 336 336 338 338 341 343 344 344 343 344 331 322 316 284 278 260 244 236 235 220 208 207
321 323 324 326 326 325 325 325 326 327 327 327 327 327 328 331 328 328 330 330 332 335 336 337 336 337 336 340 342 346 342 344 344 338 320 316 296 287 265 247 238 240 220 209 206
318 317 317 318 320 321 321 320 319 319 320 322 324 325 325 327 328 327 327 327 330 332 333 335 336 335 338 338 343 345 344 341 347 347 334 326 314 295 286 249 242 236 227 211 206
314 312 313 313 314 315 316 316 315 314 314 316 318 320 322 322 321 321 321 322 324 327 330 333 335 335 336 339 339 343 345 345 345 349 345 325 332 300 300 271 239 238 232 213 209
311 310 310 309 309 308 310 309 309 310 311 310 310 314 317 317 319 315 316 317 320 323 326 329 332 334 336 337 336 340 347 347 346 348 349 345 338 309 308 301 240 238 234 218 212
307 306 306 303 307 305 305 305 304 305 305 305 307 307 307 312 311 315 311 314 316 318 322 324 328 331 333 335 336 336 345 349 350 349 344 348 339 316 331 334 243 237 239 225 214
303 300 301 300 304 303 304 304 304 302 301 302 303 303 304 306 307 309 304 312 313 315 317 319 322 326 329 333 334 335 339 349 349 352 356 347 343 337 336 350 267 239 239 232 221
300 300 300 299 303 300 301 302 303 302 300 298 299 298 300 301 301 304 301 307 308 311 312 313 315 319 324 329 332 333 334 340 345 350 356 345 339 337 351 346 327 249 238 239 236
301 301 300 300 298 300 303 302 301 301 302 308 304 300 297 294 297 298 295 300 301 305 308 309 309 313 316 320 329 330 333 331 339 347 349 1 347 341 341 347 315 281 252 244 244
303 303 302 301 302 301 301 300 300 301 302 313 307 305 301 299 299 297 293 294 298 300 301 304 305 305 309 314 320 326 328 332 332 341 348 356 3 360 349 334 318 283 265 255 252
304 303 302 301 300 301 302 303 303 302 303 308 305 304 301 299 299 296 294 295 298 298 300 303 302 300 303 305 310 318 319 327 330 337 337 344 353 354 349 338 314 296 275 262 255
306 305 303 303 304 304 304 302 301 301 309 304 307 306 302 299 297 296 296 297 297 300 300 298 302 301 300 301 302 309 314 319 327 334 335 337 341 348 340 342 332 311 301 276 263
304 304 304 304 302 302 302 299 300 302 301 302 303 301 298 295 294 294 292 291 295 297 297 292 301 303 300 297 299 304 316 316 320 328 343 341 340 335 337 333 333 320 295 287 271
306 307 307 306 302 300 297 295 296 297 298 297 295 292 290 288 287 287 289 291 289 291 289 288 296 295 293 294 300 300 310 318 319 322 331 338 333 322 316 324 330 326 324 314 304
306 306 305 301 297 294 292 291 291 294 294 290 289 288 288 286 284 285 286 285 285 286 286 291 295 293 298 293 297 300 304 306 312 318 328 332 334 330 314 317 324 326 321 322 314
301 302 302 299 296 294 292 291 290 290 289 288 288 287 288 289 288 284 283 284 282 281 282 284 291 298 301 301 297 300 302 302 305 315 323 339 353 332 347 310 302 312 321 322 320
305 304 304 301 298 295 292 289 288 287 285 285 284 284 284 284 281 280 277 278 279 281 280 284 286 293 297 295 301 301 303 299 304 309 314 330 349 326 328 331 331 315 309 313 313
310 309 307 306 301 298 293 290 287 284 285 284 283 281 279 277 277 274 273 272 276 271 270 274 279 282 286 284 289 293 295 296 298 305 309 315 1 336 320 313 316 324 318 299 311
310 309 307 305 302 297 293 291 288 286 283 283 281 280 280 278 275 270 271 270 269 269 270 271 272 277 280 281 281 282 285 291 295 299 307 305 329 331 326 306 303 304 308 318 302
310 311 308 305 300 297 294 291 290 289 286 283 283 281 281 280 277 274 275 277 278 276 275 273 273 275 279 282 280 279 281 283 287 293 298 299 303 322 306 281 296 298 303 316 314
314 311 306 302 302 300 296 293 291 289 288 288 286 283 281 277 274 276 279 278 278 277 277 275 274 274 275 276 275 276 274 272 276 285 286 293 288 305 292 300 302 302 304 301 317
311 308 305 305 304 303 300 297 294 293 292 291 289 289 289 288 287 283 278 277 276 274 275 276 276 274 270 271 272 271 273 276 278 278 276 281 284 285 289 298 304 302 298 299 300
309 306 304 305 305 304 301 299 298 298 295 293 290 289 287 287 288 288 288 287 286 284 281 278 275 273 272 272 271 271 275 276 277 275 274 275 278 282 285 288 292 290 294 294 287
Height
5826 5824 5821 5819 5816 5813 5812 5810 5807 5805 5803 5801 5798 5796 5793 5791 5788 5786 5783 5780 5777 5774 5770 5766 5763 5758 5753 5748 5741 5734 5728 5720 5714 5708 5706 5700 5696 5694 5696 5702 5705 5710 5716 5730 5742
5826 5824 5821 5819 5816 5813 5811 5808 5806 5803 5801 5799 5796 5793 5790 5787 5785 5783 5780 5776 5773 5769 5765 5761 5757 5752 5748 5743 5736 5728 5720 5712 5705 5701 5699 5694 5688 5686 5689 5692 5696 5698 5707 5717 5732
5825 5823 5820 5818 5815 5813 5810 5807 5805 5802 5799 5796 5794 5791 5789 5785 5782 5780 5777 5773 5769 5766 5762 5757 5752 5748 5743 5737 5730 5721 5713 5705 5698 5694 5691 5685 5681 5678 5681 5684 5686 5687 5693 5706 5720
5823 5821 5818 5816 5814 5811 5808 5806 5803 5800 5797 5795 5792 5789 5786 5783 5781 5777 5774 5770 5766 5762 5758 5753 5749 5744 5738 5731 5724 5717 5708 5700 5695 5688 5684 5678 5675 5674 5675 5678 5678 5680 5686 5698 5711
5821 5818 5816 5813 5811 5809 5806 5803 5800 5797 5795 5792 5789 5786 5782 5779 5776 5773 5769 5766 5762 5758 5754 5749 5744 5739 5733 5727 5719 5712 5705 5697 5690 5683 5678 5675 5672 5669 5670 5669 5671 5671 5678 5689 5701
5818 5815 5813 5810 5808 5805 5802 5800 5797 5794 5791 5788 5785 5782 5778 5776 5773 5769 5765 5761 5757 5753 5749 5745 5740 5735 5729 5723 5716 5708 5700 5694 5686 5680 5674 5672 5668 5665 5664 5664 5665 5667 5674 5683 5694
5815 5812 5810 5806 5803 5801 5798 5795 5792 5789 5786 5783 5780 5777 5775 5772 5768 5764 5761 5757 5753 5749 5744 5740 5736 5731 5726 5719 5713 5705 5699 5690 5684 5676 5671 5668 5665 5662 5659 5659 5659 5662 5667 5676 5685
5810 5808 5805 5802 5800 5796 5793 5790 5787 5784 5781 5778 5775 5773 5769 5766 5763 5760 5756 5753 5749 5745 5740 5735 5731 5727 5721 5716 5710 5703 5696 5689 5680 5675 5668 5665 5663 5657 5655 5653 5654 5657 5663 5672 5680
5806 5803 5800 5797 5794 5791 5788 5785 5781 5779 5775 5772 5770 5767 5765 5761 5758 5755 5751 5747 5744 5740 5736 5731 5727 5723 5718 5713 5708 5701 5693 5686 5679 5672 5667 5662 5660 5654 5649 5647 5648 5653 5659 5666 5675
5801 5798 5794 5791 5788 5785 5782 5779 5776 5773 5769 5766 5763 5762 5759 5756 5752 5749 5746 5742 5738 5735 5731 5727 5723 5718 5714 5709 5704 5698 5691 5684 5677 5672 5665 5660 5655 5651 5646 5643 5645 5650 5656 5663 5670
5794 5791 5787 5784 5780 5778 5775 5772 5770 5767 5765 5761 5757 5754 5751 5749 5745 5742 5739 5737 5733 5729 5726 5723 5719 5714 5710 5706 5700 5695 5689 5683 5676 5670 5667 5659 5654 5650 5646 5643 5643 5647 5653 5659 5666
5787 5783 5780 5775 5773 5770 5767 5763 5759 5755 5756 5756 5752 5749 5745 5742 5740 5736 5734 5731 5728 5724 5720 5718 5714 5709 5705 5702 5696 5692 5687 5683 5677 5670 5665 5659 5653 5650 5646 5644 5643 5646 5650 5654 5659
5779 5775 5772 5768 5765 5763 5759 5756 5751 5747 5743 5748 5745 5741 5738 5735 5733 5730 5727 5724 5721 5718 5714 5711 5708 5704 5700 5697 5694 5688 5684 5680 5676 5671 5665 5660 5654 5649 5647 5645 5644 5645 5647 5650 5653
5771 5768 5765 5763 5760 5755 5751 5747 5744 5740 5735 5739 5735 5733 5730 5726 5726 5722 5719 5716 5713 5710 5707 5705 5701 5698 5694 5691 5688 5685 5681 5677 5673 5669 5663 5659 5656 5651 5647 5644 5643 5643 5644 5647 5650
5764 5761 5758 5755 5751 5748 5745 5741 5736 5733 5728 5728 5725 5723 5721 5719 5716 5715 5711 5708 5704 5701 5699 5697 5693 5690 5688 5686 5683 5680 5676 5673 5670 5666 5662 5657 5655 5651 5647 5644 5642 5642 5642 5643 5645
5758 5754 5751 5748 5744 5740 5736 5733 5729 5727 5722 5719 5717 5715 5713 5710 5707 5704 5702 5699 5695 5693 5691 5688 5686 5684 5681 5679 5676 5674 5671 5668 5666 5663 5661 5655 5652 5649 5646 5644 5642 5639 5638 5638 5639
5751 5747 5743 5739 5736 5731 5728 5725 5722 5719 5716 5713 5711 5708 5705 5702 5698 5696 5693 5690 5687 5685 5685 5683 5682 5679 5675 5673 5671 5668 5665 5662 5661 5659 5657 5653 5649 5646 5643 5641 5640 5638 5635 5633 5633
5742 5739 5735 5731 5727 5723 5720 5717 5713 5709 5705 5702 5700 5696 5692 5691 5689 5687 5685 5683 5680 5677 5675 5673 5676 5673 5669 5667 5665 5663 5661 5657 5653 5653 5653 5651 5647 5643 5640 5638 5637 5635 5633 5629 5626
5734 5730 5726 5722 5717 5713 5709 5705 5700 5697 5694 5690 5686 5682 5680 5678 5678 5676 5675 5673 5671 5669 5667 5665 5667 5665 5663 5661 5660 5658 5655 5653 5649 5649 5648 5647 5645 5642 5637 5635 5633 5631 5629 5626 5622
5724 5720 5715 5710 5705 5700 5696 5692 5686 5684 5680 5677 5674 5672 5669 5668 5667 5665 5664 5662 5661 5660 5659 5658 5657 5659 5657 5655 5654 5651 5650 5647 5644 5642 5639 5641 5640 5637 5635 5633 5629 5626 5624 5622 5619
5711 5706 5701 5696 5691 5687 5682 5678 5674 5671 5669 5667 5663 5661 5660 5658 5658 5656 5653 5652 5652 5652 5651 5650 5650 5653 5651 5650 5647 5645 5643 5640 5639 5638 5634 5632 5636 5633 5630 5627 5625 5622 5619 5616 5613
5699 5693 5688 5683 5679 5674 5670 5667 5664 5660 5657 5654 5653 5651 5650 5648 5648 5646 5644 5643 5643 5643 5642 5641 5639 5640 5643 5642 5640 5638 5636 5633 5631 5632 5628 5626 5630 5630 5626 5622 5619 5617 5612 5610 5607
5687 5681 5676 5671 5665 5661 5657 5654 5651 5649 5647 5644 5642 5641 5639 5638 5637 5636 5635 5634 5633 5633 5631 5631 5628 5628 5631 5633 5631 5629 5627 5625 5622 5623 5624 5620 5623 5622 5620 5615 5612 5608 5607 5604 5601
5675 5668 5663 5658 5653 5649 5646 5643 5640 5638 5636 5635 5633 5631 5629 5627 5625 5625 5625 5624 5624 5622 5619 5617 5618 5618 5618 5618 5620 5619 5619 5616 5613 5613 5613 5613 5610 5618 5614 5604 5606 5603 5601 5599 5597
5665 5658 5651 5646 5642 5638 5636 5633 5630 5627 5625 5623 5621 5619 5617 5616 5615 5614 5612 5612 5612 5610 5607 5605 5603 5603 5604 5605 5603 5605 5606 5606 5604 5605 5598 5604 5600 5605 5602 5600 5599 5598 5596 5594 5592
5653 5648 5641 5637 5632 5629 5624 5622 5620 5617 5616 5613 5610 5608 5604 5603 5603 5602 5603 5601 5599 5599 5595 5592 5588 5586 5592 5589 5588 5589 5591 5592 5593 5593 5588 5585 5589 5592 5593 5594 5593 5590 5589 5587 5586
5642 5637 5632 5627 5622 5619 5616 5612 5609 5607 5606 5602 5600 5597 5595 5594 5592 5589 5586 5586 5585 5582 5578 5578 5575 5571 5572 5574 5572 5570 5581 5579 5577 5572 5572 5573 5574 5582 5586 5586 5584 5581 5581 5580 5579